Uitslag Triathlon de Mouscron top 3

# Naam Totaal
1 Gallet Mathieu 00:57:41 82.69
2 Messiaen Benjamin 00:58:35 80.76
3 Amato Raphael 00:59:11 80.28
4 Vander-elstrate Johan 01:00:39 79.09
5 Van Verdegem Arne 01:00:56 78.86
6 Bouchet Kevin 01:00:56 78.86
7 Dejonghe Hendrick 01:01:09 78.68
8 Lintermans Koen 01:01:59 78.01
9 Van Steendam Jeroen 01:02:25 77.66
10 De Bilde Jorn 01:02:39 77.47
11 Philippe Paulin 01:02:39 77.47
12 Meul Jeroen 01:02:49 77.34
13 Spruytte Stefaan 01:03:21 76.90
14 Masson Franck 01:03:42 76.62
15 Dufrane Gil 01:05:01 75.56
16 Valet Olivier 01:05:08 75.46
17 Debruyne Frederik 01:05:11 75.42
18 Temmerman Hervé 01:05:13 75.39
19 Minet Constance 01:05:36 69.11
20 Vanhaverbeke Nicolas 01:06:38 74.25
21 Calin Thomas 01:06:52 74.06
22 Sottiau Robin 01:06:58 73.98
23 Callewaert Simon 01:07:10 73.82
24 Leman Maxime 01:07:12 73.79
25 Parein Filiep 01:07:15 73.75
26 Johnny Binet 01:07:41 73.40
27 Mesquita Raphael 01:07:51 73.26
28 Delwarte Adrien 01:08:04 73.09
29 Kestelyn Cyrille 01:08:16 72.93
30 Quertinmont Alexandre 01:08:23 72.83
31 Vanderhaeghe Alexander 01:08:27 72.78
32 Naizy Gaetan 01:08:33 72.70
33 Boelpaep Philippe 01:09:15 72.13
34 Robaeys David 01:09:28 71.95
35 Leconte Christian 01:09:30 71.93
36 Coze Damien 01:09:37 71.83
37 Sory Hervé 01:09:39 71.81
38 Redwood John 01:09:55 71.59
39 Malcourant Cyrille 01:10:25 71.19
40 Malcourant Cyrille 01:10:28 71.15
41 Brulez Koen 01:10:37 71.02
42 Vanhove Greg 01:10:58 70.74
43 Davis Joel 01:11:10 70.58
44 Cuisenaire Pierrot 01:11:24 70.39
45 Vanhoucke Stijn 01:11:35 70.24
46 Greuse Dimitri 01:11:56 69.96
47 Bogaert Ellen 01:12:11 64.42
48 Wangermez Camille 01:12:18 64.36
49 Bovo Julien 01:12:27 69.54
50 Bracq Aurelien 01:12:36 69.42
51 Hainaut Ines 01:12:45 64.12
52 Vanalderwelt Clément 01:13:02 69.07
53 Duhem Christophe 01:13:08 68.99
54 Delbart Brieuc 01:13:13 68.92
55 Beghin Gregory 01:13:32 68.66
56 Drofiak Sophie 01:13:40 63.63
57 Tesse Sebastien 01:13:46 68.47
58 Richard Laura 01:14:05 63.41
59 Van Gysel Nicolas 01:14:10 68.15
60 Mourmans Eddy 01:14:36 67.80
61 Habchi Johnny 01:14:38 67.77
62 Rondelaere Laury 01:14:40 63.10
63 Delecluse Martin 01:14:50 67.61
64 Vercruysse Thibaut 01:15:07 67.38
65 Monnier Laurent 01:15:22 67.18
66 Penet Samuel 01:15:31 67.06
67 Donche Julien 01:15:40 66.94
68 De Backer Dave 01:15:47 66.84
69 Marsella Nicolas 01:16:36 66.18
70 Fossé Thierry 01:16:45 66.06
71 Desimpelaere Guillaume Guillaume 01:16:51 65.98
72 Costeur Christophe 01:17:23 65.55
73 Defever Stefaan 01:17:29 65.47
74 Dieryckx Elise 01:17:51 61.41
75 Vanderhoost Alexis 01:18:02 65.02
76 Delebecque Eric 01:18:19 64.79
77 Denoel Sylvain 01:18:35 64.58
78 Chevallier Audrey 01:18:36 61.02
79 Glorieux Jonathan 01:18:54 64.32
80 Debacker Nathalie 01:19:05 60.76
81 Penet Davy 01:19:15 64.04
82 Lallement Stéphane 01:19:17 64.01
83 Decock Julien 01:19:26 63.89
84 Renard Alexandre 01:19:46 63.62
85 Kubica Natacha 01:19:48 60.38
86 Jacobs Marc 01:19:53 63.52
87 Dejobghe Aurelie 01:20:14 60.15
88 Bearez Maxime 01:20:19 63.17
89 Vandekerkhove Margot 01:20:29 60.02
90 Desmet Christophe 01:20:40 62.89
91 Moreaux Laetitia 01:21:00 59.74
92 Sory Virginie 01:21:11 59.65
93 Messiaen Benoît 01:21:38 62.11
94 Roelens Emilio 01:21:42 62.05
95 Saussez Amélie 01:21:49 59.31
96 Debeuf Guy 01:21:56 61.87
97 Carrette Olivier 01:22:35 61.34
98 Dubois David 01:23:06 60.92
99 Lovisa Serge 01:23:07 60.91
100 Deschuyteneer Stéphane 01:23:22 60.71
101 Vansteenkiste Olivier 01:23:35 60.53
102 Laurent Christelle 01:23:37 58.36
103 Temperman Gaëtan 01:23:47 60.37
104 Devernay Grégory 01:23:58 60.22
105 Delahaye Severine 01:24:00 58.15
106 Bouteille Paul 01:24:37 59.69
107 Pascale Monnier 01:24:41 57.79
108 Phyfferoen Stéphane 01:24:46 59.57
109 Bauduin Raphael 01:24:49 59.53
110 Lavens Jean-francois 01:24:54 59.47
111 Goeseels Luc 01:25:13 59.21
112 Dewever Sophie 01:25:52 57.16
113 Mullie Sam 01:25:55 58.64
114 Deltour Anthony 01:26:09 58.45
115 Houyvet Romuald 01:26:10 58.44
116 Brasseur Simon 01:26:30 58.17
117 Verhelst Alexander 01:26:39 58.05
118 Tierrie Francois 01:26:39 58.05
119 Nyffels Manu 01:26:41 58.02
120 Delberghe Quentin 01:26:53 57.86
121 De Jonkheere Christophe 01:27:00 57.77
122 Parez Benjamin 01:27:06 57.69
123 Cornelis Eric 01:27:09 57.64
124 Rixhon Julien 01:27:37 57.27
125 Schuddinck Christopher 01:28:07 56.86
126 Vanaerde Benjamin 01:28:17 56.73
127 Veys Stephane 01:28:17 56.73
128 Demol Patricia 01:28:47 55.62
129 Vantomme Kristell 01:29:02 55.49
130 Lamiaux Isabelle 01:29:20 55.33
131 Dedecker Xavier 01:29:43 55.57
132 Biancato Laurent 01:29:47 55.51
133 Duhamel Benoit 01:29:59 55.35
134 Delcourt Patrick 01:30:09 55.22
135 Lesoil Harmony 01:30:39 54.63
136 Vanhalwyn Adélaïde 01:31:28 54.19
137 Di Lorenzo Paolo 01:31:38 54.02
138 Picavet Laurie 01:33:11 53.28
139 Vieux Lucie 01:33:13 53.27
140 Gallet Christelle 01:33:28 53.13
141 Bouche Isabelle 01:33:30 53.12
142 DUTHOY Marleen 01:33:35 53.07
143 Poirier Catherine 01:33:41 53.02
144 Abraham Michel 01:33:48 52.26
145 Sarout Samy 01:33:52 52.21
146 Malcotte Patrick 01:34:02 52.07
147 Lacroix Frédéric 01:34:07 52.01
148 Vanhove Pierre 01:34:20 51.83
149 Delplanque Axel 01:34:22 51.80
150 Pastant Pierre 01:34:26 51.75
151 Birenbaum Alain 01:34:42 51.53
152 Olivares Juan 01:36:18 50.24
153 Vanderhoost Hadrien 01:36:26 50.13
154 Elyn Christiane 01:36:49 51.36
155 Stragier Sylvie 01:36:52 51.33
156 Fortrye Melanie 01:37:02 51.24
157 Derume Florine 01:37:03 51.23
158 Nuttin Gilles 01:38:04 48.81
159 Leclercq Christophe 01:38:14 48.68
160 Berghe Laurent 01:38:17 48.64
161 Devos Wim 01:38:27 48.50
162 Woestyn Tanguy 01:38:43 48.28
163 Tilleul Carine 01:39:00 50.20
164 Fontaine Jean Michel 01:40:03 47.21
165 Woestyn Jean-francois 01:40:17 47.02
166 Ficheroulle Jean 01:40:59 46.45
167 Poirier Henry 01:43:03 44.78
168 Le Strat Jean 01:45:58 42.42
169 Vandermoten Vincent 01:47:20 41.31
170 Vanzeveren Nathalie 01:47:56 45.46
171 Roelens Virginie 01:48:25 45.21
172 Bouche Jacky 01:49:12 39.80
173 Guillaume Patrick 01:51:29 37.95
174 Declercq Francoise 01:51:54 43.36
175 Berton César 01:52:37 37.04
176 Chamosa Xavier 01:52:40 37.00
177 De Merlier Ingrid 01:53:54 42.30
178 Vanhamme Lucien 01:54:07 35.82
179 Deman Fabienne 01:55:09 41.64
180 Sottiau Julien 01:55:48 33.96
181 Bruneel Isabelle 01:57:30 40.39
182 Debattice Anne 02:04:49 36.51
183 Thibaut Géraldine 02:07:35 35.05
184 Valet Chloé 02:07:50 34.91
185 Stichelbout Barbara 02:08:05 34.28

Reacties

  • Debruyne Frederik · 3 jaar geleden

    Op de website van Triathlon Moeskroen (www.etmouscron.be) staat er bij de info dat het een non-drafting wedstrijd is. Ik meen me inderdaad te herinneren dat dit vorig jaar wel een drafting wedstrijd was. Tot op heden blijft mijn vraag aan de organisatie onbeantwoord. Iemand die hier duidelijkheid in kan scheppen?